EN

Hourly Weather Abzanovo

Today, 14 May, Friday

Time Temperature Precipitation Wind Pressure Humidity
00:00 +19°C° 0 mm 1 mps 760 mmHg 63%
01:00 +18°C° 0 mm 1 mps 760 mmHg 65%
02:00 +18°C° 0 mm 1 mps 760 mmHg 67%
03:00 +16°C° 0 mm 1 mps 760 mmHg 69%
04:00 +16°C° 0 mm 1 mps 760 mmHg 70%
05:00 +18°C° 0 mm 1 mps 760 mmHg 67%
06:00 +20°C° 0 mm 1 mps 760 mmHg 63%
07:00 +21°C° 0 mm 1 mps 760 mmHg 59%
08:00 +23°C° 0 mm 1 mps 760 mmHg 53%
09:00 +25°C° 0 mm 1 mps 760 mmHg 47%
10:00 +27°C° 0 mm 2 mps 760 mmHg 41%
11:00 +27°C° 0 mm 2 mps 760 mmHg 38%
12:00 +28°C° 0 mm 3 mps 760 mmHg 35%
13:00 +29°C° 0 mm 3 mps 760 mmHg 32%
14:00 +29°C° 0 mm 3 mps 760 mmHg 32%
15:00 +29°C° 0 mm 3 mps 760 mmHg 31%
16:00 +29°C° 0 mm 3 mps 759 mmHg 31%
17:00 +28°C° 0 mm 3 mps 759 mmHg 38%
18:00 +26°C° 0 mm 2 mps 759 mmHg 45%
19:00 +24°C° 0 mm 2 mps 759 mmHg 52%
20:00 +23°C° 0 mm 2 mps 759 mmHg 53%
21:00 +20°C° 0 mm 2 mps 759 mmHg 54%
22:00 +19°C° 0 mm 2 mps 759 mmHg 55%
23:00 +18°C° 0 mm 2 mps 759 mmHg 55%

Tomorrow, 15 May, Saturday

Time Temperature Precipitation Wind Pressure Humidity
00:00 +18°C° 0 mm 2 mps 759 mmHg 56%
01:00 +17°C° 0 mm 2 mps 759 mmHg 57%
02:00 +17°C° 0 mm 2 mps 759 mmHg 57%
03:00 +16°C° 0 mm 2 mps 759 mmHg 58%
04:00 +16°C° 0 mm 2 mps 759 mmHg 58%
05:00 +17°C° 0 mm 2 mps 759 mmHg 57%
06:00 +19°C° 0 mm 2 mps 759 mmHg 55%
07:00 +20°C° 0 mm 2 mps 759 mmHg 54%
08:00 +23°C° 0 mm 2 mps 759 mmHg 49%
09:00 +25°C° 0 mm 3 mps 759 mmHg 44%
10:00 +27°C° 0 mm 3 mps 759 mmHg 39%
11:00 +28°C° 0 mm 3 mps 758 mmHg 37%
12:00 +29°C° 0 mm 4 mps 758 mmHg 34%
13:00 +30°C° 0 mm 4 mps 758 mmHg 32%
14:00 +30°C° 0 mm 4 mps 758 mmHg 32%
15:00 +31°C° 0 mm 3 mps 758 mmHg 32%
16:00 +31°C° 0 mm 3 mps 758 mmHg 32%
17:00 +29°C° 0 mm 3 mps 757 mmHg 39%
18:00 +27°C° 0 mm 2 mps 757 mmHg 46%
19:00 +26°C° 0 mm 2 mps 757 mmHg 53%
20:00 +24°C° 0 mm 2 mps 757 mmHg 55%
21:00 +23°C° 0 mm 2 mps 757 mmHg 57%
22:00 +20°C° 0 mm 2 mps 757 mmHg 59%
23:00 +19°C° 0 mm 2 mps 757 mmHg 60%

Day after tomorrow, 16 May, Sunday

Time Temperature Precipitation Wind Pressure Humidity
00:00 +19°C° 0 mm 2 mps 757 mmHg 61%
01:00 +19°C° 0 mm 1 mps 757 mmHg 62%
02:00 +19°C° 0 mm 1 mps 757 mmHg 62%
03:00 +18°C° 0 mm 1 mps 757 mmHg 63%
04:00 +18°C° 0 mm 1 mps 758 mmHg 63%
05:00 +19°C° 0 mm 1 mps 758 mmHg 61%
06:00 +21°C° 0 mm 1 mps 758 mmHg 58%
07:00 +22°C° 0 mm 1 mps 758 mmHg 55%
08:00 +24°C° 0 mm 2 mps 758 mmHg 50%
09:00 +26°C° 0 mm 2 mps 758 mmHg 45%
10:00 +28°C° 0 mm 2 mps 757 mmHg 40%
11:00 +29°C° 0 mm 3 mps 757 mmHg 36%
12:00 +30°C° 0 mm 3 mps 757 mmHg 33%
13:00 +31°C° 0 mm 3 mps 757 mmHg 30%
14:00 +31°C° 0 mm 3 mps 757 mmHg 30%
15:00 +31°C° 0 mm 3 mps 757 mmHg 30%
16:00 +31°C° 0 mm 3 mps 756 mmHg 29%
17:00 +30°C° 0 mm 2 mps 756 mmHg 36%
18:00 +28°C° 0 mm 2 mps 756 mmHg 43%
19:00 +26°C° 0 mm 1 mps 756 mmHg 49%
20:00 +25°C° 0 mm 1 mps 756 mmHg 51%
21:00 +23°C° 0 mm 2 mps 756 mmHg 52%
22:00 +21°C° 0 mm 2 mps 756 mmHg 53%
23:00 +20°C° 0 mm 2 mps 756 mmHg 55%

17 May, Monday

Time Temperature Precipitation Wind Pressure Humidity
00:00 +20°C° 0 mm 2 mps 756 mmHg 56%
01:00 +19°C° 0 mm 2 mps 756 mmHg 58%
02:00 +18°C° 0 mm 2 mps 756 mmHg 59%
03:00 +18°C° 0 mm 2 mps 756 mmHg 61%
04:00 +17°C° 0 mm 2 mps 756 mmHg 62%
05:00 +19°C° 0 mm 2 mps 756 mmHg 60%
06:00 +20°C° 0 mm 2 mps 756 mmHg 58%
07:00 +23°C° 0 mm 2 mps 756 mmHg 56%
08:00 +25°C° 0 mm 2 mps 756 mmHg 51%
09:00 +27°C° 0 mm 2 mps 756 mmHg 47%
10:00 +28°C° 0 mm 3 mps 756 mmHg 42%
11:00 +29°C° 0 mm 3 mps 756 mmHg 40%
12:00 +30°C° 0 mm 3 mps 756 mmHg 37%
13:00 +31°C° 0 mm 3 mps 756 mmHg 34%
14:00 +33°C° 0 mm 3 mps 756 mmHg 33%
15:00 +33°C° 0 mm 3 mps 755 mmHg 32%
16:00 +33°C° 0 mm 3 mps 755 mmHg 31%
17:00 +29°C° 0.2 mm 3 mps 755 mmHg 40%
18:00 +26°C° 0.2 mm 3 mps 755 mmHg 49%
19:00 +21°C° 0.2 mm 3 mps 755 mmHg 58%
20:00 +20°C° 0.3 mm 3 mps 755 mmHg 66%
21:00 +19°C° 0.3 mm 3 mps 756 mmHg 73%
22:00 +18°C° 0.3 mm 3 mps 756 mmHg 81%
23:00 +18°C° 0 mm 2 mps 756 mmHg 80%

18 May, Tuesday

Time Temperature Precipitation Wind Pressure Humidity
00:00 +18°C° 0 mm 1 mps 755 mmHg 80%
01:00 +18°C° 0 mm 1 mps 755 mmHg 80%
02:00 +18°C° 0 mm 1 mps 755 mmHg 80%
03:00 +16°C° 0 mm 1 mps 755 mmHg 81%
04:00 +16°C° 0 mm 1 mps 755 mmHg 81%
05:00 +18°C° 0 mm 1 mps 755 mmHg 77%
06:00 +20°C° 0 mm 1 mps 755 mmHg 72%
07:00 +21°C° 0 mm 1 mps 755 mmHg 68%
08:00 +23°C° 0 mm 1 mps 755 mmHg 61%
09:00 +26°C° 0 mm 1 mps 755 mmHg 54%
10:00 +28°C° 0 mm 1 mps 755 mmHg 48%
11:00 +29°C° 0 mm 1 mps 755 mmHg 45%
12:00 +30°C° 0 mm 2 mps 755 mmHg 42%
13:00 +31°C° 0 mm 2 mps 754 mmHg 39%
14:00 +31°C° 0 mm 2 mps 754 mmHg 37%
15:00 +31°C° 0 mm 2 mps 754 mmHg 35%
16:00 +31°C° 0 mm 1 mps 754 mmHg 33%
17:00 +30°C° 0 mm 1 mps 754 mmHg 39%
18:00 +28°C° 0 mm 1 mps 754 mmHg 46%
19:00 +27°C° 0 mm 1 mps 753 mmHg 52%
20:00 +24°C° 0.1 mm 2 mps 754 mmHg 62%
21:00 +21°C° 0.1 mm 2 mps 754 mmHg 72%
22:00 +19°C° 0.1 mm 2 mps 754 mmHg 81%
23:00 +18°C° 0 mm 2 mps 754 mmHg 84%

19 May, Wednesday

Time Temperature Precipitation Wind Pressure Humidity
00:00 +19°C° 0 mm 1 mps 754 mmHg 86%
01:00 +16°C° 0 mm 0 mps 754 mmHg 88%
02:00 +18°C° 0.1 mm 1 mps 754 mmHg 89%
03:00 +18°C° 0.1 mm 1 mps 755 mmHg 89%
04:00 +18°C° 0.1 mm 1 mps 755 mmHg 89%
05:00 +19°C° 0.1 mm 1 mps 755 mmHg 85%
06:00 +20°C° 0.1 mm 1 mps 755 mmHg 81%
07:00 +21°C° 0.1 mm 1 mps 755 mmHg 77%
08:00 +23°C° 0 mm 1 mps 755 mmHg 69%
09:00 +25°C° 0 mm 1 mps 755 mmHg 60%
10:00 +27°C° 0 mm 1 mps 755 mmHg 51%
11:00 +28°C° 0 mm 1 mps 755 mmHg 46%
12:00 +30°C° 0 mm 1 mps 755 mmHg 42%
13:00 +31°C° 0 mm 1 mps 755 mmHg 37%
14:00 +31°C° 0 mm 1 mps 755 mmHg 37%
15:00 +30°C° 0 mm 1 mps 755 mmHg 38%
16:00 +30°C° 0 mm 1 mps 755 mmHg 39%
17:00 +27°C° 0.4 mm 2 mps 755 mmHg 51%
18:00 +23°C° 0.4 mm 4 mps 755 mmHg 64%
19:00 +20°C° 0.4 mm 5 mps 756 mmHg 77%
20:00 +19°C° 0.1 mm 4 mps 756 mmHg 80%
21:00 +18°C° 0.1 mm 3 mps 756 mmHg 82%
22:00 +18°C° 0.1 mm 1 mps 756 mmHg 85%
23:00 +18°C° 0 mm 1 mps 756 mmHg 85%
Show more